EW4238 Weather Reports


time (UTC)temp
C
wind
direction
speed
KPH
gust
KPH
rain 1hr
cm
rain 24hr
cm
rain mn
cm
humidity
%
barometer
mb
20260906233019 20 42 3.2 8.0 0.00 2.06 0.08 68 1012.4
20260906231514 18 341 6.4 12.9 0.03 2.06 0.08 74 1012.4
20260906230034 17 311 6.4 12.9 0.03 2.06 0.08 72 1012.8
20260906224511 17 313 4.8 11.3 0.03 2.06 0.08 73 1012.8
20260906223009 17 350 3.2 16.1 0.03 2.06 0.08 75 1013.0
20260906221509 17 316 3.2 12.9 0.00 2.03 0.05 73 1013.1
20260906220010 17 297 1.6 6.4 0.00 2.03 0.05 73 1013.2
20260906214506 17 325 3.2 6.4 0.03 2.03 0.05 74 1013.1
20260906213006 17 302 1.6 6.4 0.03 2.03 0.05 74 1012.9
20260906211503 16 12 0.0 4.8 0.03 2.03 0.05 79 1012.9
20260906210002 16 34 0.0 1.6 0.03 2.03 0.05 79 1012.8
20260906204609 16 62 0.0 3.2 0.03 2.03 0.05 79 1012.9
20260906203100 16 79 0.0 0.0 0.00 2.01 0.03 79 1012.9
20260906201603 16 56 0.0 3.2 0.03 2.01 0.03 78 1012.9
20260906200059 16 57 0.0 4.8 0.03 2.01 0.03 79 1012.9
20260906194600 16 47 0.0 3.2 0.03 2.01 0.03 79 1012.8
20260906193058 16 57 0.0 0.0 0.05 2.01 0.03 80 1013.0
20260906191611 16 72 0.0 3.2 0.03 1.98 0.00 78 1013.1
20260906190057 16 360 0.0 8.0 0.03 1.98 0.00 77 1013.0
20260906184600 16 106 1.6 12.9 0.03 1.98 0.00 80 1013.2
20260906183054 15 101 3.2 11.3 0.03 1.96 1.96 82 1013.2
20260906181553 15 18 0.0 4.8 0.03 1.96 1.96 86 1012.9
20260906180109 14 74 1.6 8.0 0.03 1.96 1.96 88 1013.1
20260906174548 13 86 0.0 4.8 0.05 1.96 1.96 89 1013.9
20260906173048 13 33 0.0 4.8 0.03 1.93 1.93 90 1014.3
20260906171547 13 48 0.0 6.4 0.03 1.93 1.93 91 1014.5
20260906170054 13 42 3.2 12.9 0.03 1.93 1.93 94 1014.6
20260906164546 12 21 1.6 9.7 0.05 1.93 1.93 92 1015.3
20260906163103 12 306 11.3 17.7 0.03 1.91 1.91 92 1015.8
20260906161645 12 323 6.4 14.5 0.03 1.91 1.91 93 1015.6
20260906160045 12 22 3.2 8.0 0.05 1.91 1.91 95 1015.1
20260906154544 12 358 3.2 12.9 0.03 1.88 1.88 94 1015.1
20260906153051 11 27 8.0 19.3 0.05 1.88 1.88 94 1015.3
20260906151544 11 353 6.4 16.1 0.05 1.88 1.88 94 1015.7
20260906150044 11 343 6.4 17.7 0.03 1.85 1.85 94 1015.8
20260906144544 11 8 8.0 14.5 0.03 1.85 1.85 93 1016.1
20260906143050 11 339 9.7 29.0 0.00 1.85 1.83 93 1016.6
20260906141542 11 291 20.9 32.2 0.03 1.85 1.83 92 1016.6
20260906140044 11 306 19.3 27.4 0.03 1.85 1.83 91 1016.5
20260906134538 12 321 14.5 29.0 0.03 1.85 1.83 89 1016.4
20260906133038 12 339 1.6 6.4 0.03 2.01 1.83 90 1015.7
20260906131538 12 45 0.0 4.8 0.00 1.98 1.80 91 1015.2
20260906130042 12 45 0.0 3.2 0.03 1.98 1.80 91 1015.1
20260906124538 12 5 1.6 6.4 0.03 1.98 1.80 91 1015.3
20260906123035 12 353 4.8 11.3 0.03 1.98 1.80 90 1015.7
20260906121535 12 34 4.8 19.3 0.05 1.98 1.80 91 1015.7
20260906120035 12 350 8.0 32.2 0.03 1.96 1.78 91 1016.1
20260906114536 12 320 9.7 45.1 0.03 1.96 1.78 91 1016.4
20260906113034 12 307 6.4 14.5 0.05 1.96 1.78 92 1016.5
20260906111534 12 63 0.0 9.7 0.03 1.93 1.75 92 1015.4
20260906110033 12 48 1.6 6.4 0.05 1.93 1.75 93 1015.1
20260906104531 12 62 1.6 8.0 0.08 1.93 1.75 93 1015.1
20260906103030 12 79 1.6 4.8 0.10 1.93 1.75 93 1015.3
20260906101531 12 235 1.6 8.0 0.10 1.91 1.73 93 1015.8
20260906100029 12 83 1.6 6.4 0.10 1.88 1.70 93 1015.8
20260906094529 12 52 1.6 4.8 0.15 1.88 1.70 93 1015.9
20260906093037 12 77 1.6 9.7 0.20 1.85 1.68 93 1015.9
20260906091528 12 22 0.0 4.8 0.23 1.83 1.65 93 1016.2
20260906090129 11 16 1.6 8.0 0.28 1.80 1.63 93 1016.5
20260906084527 11 4 1.6 11.3 0.28 1.73 1.55 92 1017.4
20260906083027 12 22 3.2 11.3 0.38 1.68 1.50 92 1017.2
20260906081527 12 288 11.3 22.5 0.33 1.60 1.42 91 1018.0
20260906080021 12 318 6.4 14.5 0.28 1.55 1.37 92 1016.7
20260906074520 12 57 4.8 14.5 0.25 1.45 1.30 91 1016.0
20260906073018 12 22 3.2 19.3 0.15 1.35 1.17 91 1017.3
20260906071517 12 272 3.2 11.3 0.15 1.27 1.09 91 1017.3
20260906070017 12 27 3.2 8.0 0.43 1.27 1.09 91 1016.6
20260906064520 12 18 3.2 9.7 0.41 1.22 1.04 90 1017.6
20260906063015 12 26 6.4 12.9 0.38 1.19 1.02 90 1017.6
20260906061513 12 56 3.2 8.0 0.33 1.14 0.97 90 1018.6
20260906060020 12 307 9.7 17.7 0.10 0.86 0.69 89 1019.3
20260906054509 12 360 4.8 9.7 0.23 0.81 0.64 89 1017.9
20260906053016 12 351 4.8 12.9 0.23 0.81 0.64 89 1018.1
20260906051507 12 12 1.6 11.3 0.23 0.81 0.64 88 1017.6
20260906050004 12 40 3.2 14.5 0.20 0.79 0.61 87 1017.4
20260906044504 12 229 0.0 8.0 0.10 0.61 0.43 86 1018.8
20260906043003 12 351 1.6 9.7 0.28 0.58 0.41 86 1017.3
20260906041507 12 35 1.6 6.4 0.38 0.58 0.41 86 1017.2
20260906040100 13 151 0.0 8.0 0.41 0.58 0.41 84 1016.9
20260906034559 13 35 1.6 4.8 0.36 0.53 0.36 81 1015.3
20260906033100 14 53 0.0 6.4 0.18 0.36 0.18 79 1018.4
20260906031552 15 6 1.6 8.0 0.03 0.20 0.03 75 1017.8
20260906030051 15 46 3.2 12.9 0.00 0.18 0.00 69 1016.5
20260906024547 15 70 3.2 8.0 0.00 0.18 0.00 68 1015.6
20260906023046 16 35 3.2 11.3 0.00 0.18 0.00 67 1015.1
20260906021541 16 89 3.2 11.3 0.00 0.18 0.00 66 1015.2
20260906020040 16 38 1.6 12.9 0.00 0.18 0.00 65 1015.3
20260906014544 17 76 1.6 11.3 0.00 0.18 0.00 63 1015.3
20260906013034 17 60 3.2 14.5 0.00 0.18 0.00 61 1015.3
20260906011530 18 36 0.0 6.4 0.00 0.18 0.00 57 1015.1
20260906010029 20 122 1.6 6.4 0.00 0.18 0.00 56 1015.1
20260906004530 20 25 1.6 11.3 0.00 0.18 0.00 53 1015.1
20260906003028 21 32 3.2 9.7 0.00 0.18 0.00 51 1015.0
20260906001525 21 14 4.8 17.7 0.00 0.18 0.00 50 1015.4
20260906000026 22 12 6.4 17.7 0.00 0.18 0.00 50 1015.3
20260905234525 22 37 3.2 19.3 0.00 0.18 0.00 50 1015.6